Location: Vihti�l�
(61.3833°N, 23.0667°E)
Time: 04:38:59
(UTC+00:00)

SL-4 R/B - Pass Details

Date: 29 November 2020
Orbit: 428 x 664 km, 51.6° (Epoch: 22 January)

Event Time Altitude Azimuth Distance (km) Brightness Sun altitude
Exits shadow 04:15:46 17° 209° (SSW) 1,351 3.8 -18.8°
Maximum altitude 04:17:02 19° 184° (S) 1,222 3.8 -18.7°
Drops below altitude 10° 04:19:45 10° 137° (SE) 1,652 5.2 -18.4°
Sets 04:22:15 0° 119° (ESE) 2,490 6.8 -18.1°
